Galesburg, IL

11:30 PM CDT on August 31, 2016 (GMT -0500)
Galesburg Municipal

Weather History for KGBG - June, 2013

Change the Weather History Date:

Saturday, June 1, 2013

  Actual Average Record
Temperature  
Mean Temperature 68 °F -  
Max Temperature 75 °F 78 °F 91 °F (1988)
Min Temperature 61 °F 55 °F 41 °F (1993)
Cooling Degree Days 3    
Growing Degree Days 18 (Base 50)    
Moisture  
Dew Point 60 °F    
Average Humidity 81    
Maximum Humidity 96    
Minimum Humidity 52    
Precipitation  
Precipitation 0.02 in - - ()
Sea Level Pressure  
Sea Level Pressure 29.73 in    
Wind  
Wind Speed 11 mph (SW)    
Max Wind Speed 18 mph    
Max Gust Speed 24 mph    
Visibility 10 miles    
Events      
Averages and records for this station are not official NWS values.
T = Trace of Precipitation, MM = Missing Value Source: NWS Daily Summary

Daily Weather History Graph

Daily Weather History Graph

Search for Another Location

Airport or City:

Trip Planner

Search our weather history database for the weather conditions in past years. The results will help you decide how hot, cold, wet, or windy it might be!

Date:

Astronomy

Jun. 01, 2013 Rise Set
Actual Time 5:31 AM CDT 8:27 PM CDT
Civil Twilight 4:59 AM CDT 9:00 PM CDT
Nautical Twilight 4:17 AM CDT 9:42 PM CDT
Astronomical Twilight 3:29 AM CDT 10:30 PM CDT
Moon 1:30 AM CDT 1:54 PM CDT
Length of Visible Light 16h 01m
Length of Day
14h 55m
Last Quarter, 40% of the Moon is Illuminated
Jun 1
Last Quarter
Jun 8
New
Jun 16
First Quarter
Jun 23
Full
Jun 29
Last Quarter

Hourly Weather History & Observations

Time (CDT) Temp. Dew Point Humidity Pressure Visibility Wind Dir Wind Speed Gust Speed Precip Events Conditions
12:15 AM 68.0 °F 65.7 °F 92% 29.72 in 10.0 mi South 9.2 mph - N/A   Clear
12:35 AM 67.3 °F 63.7 °F 88% 29.72 in 10.0 mi South 10.4 mph - N/A   Clear
12:55 AM 66.6 °F 63.5 °F 90% 29.73 in 10.0 mi South 11.5 mph 16.1 mph N/A   Scattered Clouds
1:15 AM 66.2 °F 62.6 °F 88% 29.72 in 10.0 mi South 11.5 mph - N/A   Scattered Clouds
1:35 AM 65.7 °F 63.0 °F 91% 29.71 in 10.0 mi SSW 12.7 mph - N/A   Mostly Cloudy
1:55 AM 65.5 °F 63.0 °F 92% 29.71 in 10.0 mi SSW 11.5 mph 19.6 mph N/A   Overcast
2:15 AM 65.3 °F 63.0 °F 92% 29.69 in 10.0 mi South 12.7 mph - N/A   Overcast
2:35 AM 65.3 °F 62.8 °F 92% 29.70 in 10.0 mi South 13.8 mph - N/A   Overcast
2:55 AM 64.9 °F 62.6 °F 92% 29.70 in 10.0 mi SSW 13.8 mph - N/A   Overcast
3:15 AM 64.4 °F 61.9 °F 92% 29.70 in 10.0 mi SSW 12.7 mph 18.4 mph N/A   Scattered Clouds
3:35 AM 63.9 °F 61.5 °F 92% 29.69 in 10.0 mi SSW 9.2 mph - N/A   Clear
3:55 AM 63.0 °F 61.2 °F 94% 29.69 in 10.0 mi South 6.9 mph - N/A   Clear
4:15 AM 63.0 °F 61.2 °F 94% 29.71 in 10.0 mi South 6.9 mph - N/A   Mostly Cloudy
4:35 AM 62.6 °F 61.0 °F 94% 29.71 in 10.0 mi South 6.9 mph - N/A   Overcast
4:55 AM 62.6 °F 60.8 °F 94% 29.71 in 10.0 mi South 6.9 mph - N/A   Mostly Cloudy
5:15 AM 62.6 °F 61.0 °F 94% 29.70 in 10.0 mi South 9.2 mph - N/A   Overcast
5:35 AM 62.1 °F 60.8 °F 96% 29.69 in 10.0 mi South 6.9 mph - N/A   Scattered Clouds
5:55 AM 62.1 °F 60.8 °F 96% 29.70 in 10.0 mi Calm Calm - N/A   Scattered Clouds
6:15 AM 62.1 °F 60.8 °F 96% 29.71 in 10.0 mi SSE 4.6 mph - N/A   Mostly Cloudy
6:35 AM 62.1 °F 60.8 °F 96% 29.71 in 10.0 mi South 5.8 mph - N/A   Mostly Cloudy
6:55 AM 62.2 °F 61.0 °F 96% 29.72 in 10.0 mi SSE 9.2 mph - N/A   Mostly Cloudy
7:15 AM 62.6 °F 61.3 °F 96% 29.73 in 10.0 mi SSE 12.7 mph 17.3 mph N/A   Overcast
7:35 AM 63.0 °F 61.3 °F 94% 29.73 in 10.0 mi South 11.5 mph - N/A   Overcast
7:55 AM 63.7 °F 61.9 °F 94% 29.73 in 10.0 mi South 11.5 mph - N/A   Overcast
8:15 AM 64.4 °F 62.1 °F 92% 29.73 in 10.0 mi South 11.5 mph 17.3 mph N/A   Overcast
8:35 AM 64.6 °F 62.2 °F 92% 29.73 in 10.0 mi South 9.2 mph - N/A   Overcast
8:55 AM 65.3 °F 62.8 °F 92% 29.74 in 10.0 mi South 9.2 mph 17.3 mph N/A   Overcast
9:15 AM 65.7 °F 63.0 °F 91% 29.74 in 10.0 mi South 11.5 mph 19.6 mph N/A   Overcast
9:35 AM 66.2 °F 62.6 °F 88% 29.73 in 10.0 mi South 12.7 mph 18.4 mph N/A   Overcast
9:55 AM 66.6 °F 62.6 °F 87% 29.72 in 10.0 mi South 11.5 mph 16.1 mph N/A   Overcast
10:15 AM 67.1 °F 62.8 °F 86% 29.73 in 10.0 mi South 11.5 mph - N/A   Overcast
10:35 AM 68.0 °F 62.8 °F 83% 29.73 in 10.0 mi SSW 11.5 mph - N/A   Overcast
10:55 AM 68.9 °F 63.0 °F 81% 29.72 in 10.0 mi South 13.8 mph - N/A   Overcast
11:15 AM 68.9 °F 63.1 °F 82% 29.72 in 10.0 mi South 8.1 mph - N/A   Overcast
11:35 AM 70.7 °F 63.9 °F 79% 29.71 in 10.0 mi South 11.5 mph - N/A   Overcast
11:55 AM 70.5 °F 63.9 °F 79% 29.71 in 10.0 mi SSW 11.5 mph - N/A   Overcast
12:15 PM 69.3 °F 63.3 °F 81% 29.72 in 10.0 mi SW 8.1 mph - N/A   Overcast
12:35 PM 71.4 °F 64.9 °F 80% 29.71 in 10.0 mi SW 9.2 mph - N/A   Overcast
12:55 PM 71.6 °F 64.0 °F 77% 29.72 in 10.0 mi WSW 9.2 mph - N/A   Overcast
1:15 PM 72.7 °F 64.6 °F 76% 29.71 in 10.0 mi SW 9.2 mph - N/A   Mostly Cloudy
1:35 PM 73.8 °F 64.6 °F 73% 29.71 in 10.0 mi SW 10.4 mph - N/A   Mostly Cloudy
1:55 PM 72.5 °F 64.2 °F 75% 29.71 in 10.0 mi SW 9.2 mph - N/A   Overcast
2:15 PM 71.4 °F 63.1 °F 75% 29.71 in 10.0 mi WSW 10.4 mph - N/A   Overcast
2:35 PM 73.8 °F 63.3 °F 70% 29.70 in 10.0 mi WSW 10.4 mph - N/A   Overcast
2:55 PM 74.5 °F 62.4 °F 66% 29.70 in 10.0 mi WSW 10.4 mph 17.3 mph N/A   Mostly Cloudy
3:15 PM 75.4 °F 62.4 °F 64% 29.70 in 10.0 mi WSW 12.7 mph 16.1 mph N/A   Mostly Cloudy
3:35 PM 75.0 °F 56.3 °F 52% 29.70 in 10.0 mi WSW 15.0 mph 20.7 mph N/A   Scattered Clouds
3:55 PM 75.2 °F 56.5 °F 52% 29.71 in 10.0 mi SW 13.8 mph 20.7 mph N/A   Clear
4:15 PM 74.8 °F 55.9 °F 52% 29.71 in 10.0 mi SW 15.0 mph 21.9 mph N/A   Clear
4:35 PM 73.4 °F 57.7 °F 58% 29.71 in 10.0 mi WSW 13.8 mph 17.3 mph N/A   Mostly Cloudy
4:55 PM 73.4 °F 56.5 °F 55% 29.71 in 10.0 mi West 17.3 mph 23.0 mph N/A   Mostly Cloudy
5:15 PM 72.3 °F 56.7 °F 58% 29.72 in 10.0 mi WSW 18.4 mph 24.2 mph N/A   Mostly Cloudy
5:35 PM 72.5 °F 55.2 °F 54% 29.72 in 10.0 mi WSW 17.3 mph 23.0 mph N/A   Clear
5:55 PM 71.2 °F 56.3 °F 59% 29.72 in 10.0 mi West 12.7 mph - N/A   Scattered Clouds
6:15 PM 69.3 °F 55.9 °F 62% 29.72 in 10.0 mi West 15.0 mph 23.0 mph N/A   Mostly Cloudy
6:35 PM 68.5 °F 56.3 °F 65% 29.73 in 10.0 mi West 15.0 mph - N/A   Overcast
6:55 PM 68.2 °F 57.0 °F 67% 29.74 in 10.0 mi West 17.3 mph 23.0 mph N/A   Mostly Cloudy
7:15 PM 67.3 °F 56.5 °F 68% 29.74 in 10.0 mi West 15.0 mph - N/A   Scattered Clouds
7:35 PM 65.5 °F 57.2 °F 75% 29.74 in 10.0 mi West 11.5 mph - N/A   Clear
7:55 PM 65.7 °F 57.9 °F 76% 29.75 in 10.0 mi West 12.7 mph - N/A   Mostly Cloudy
8:15 PM 65.5 °F 57.2 °F 75% 29.76 in 10.0 mi West 12.7 mph 18.4 mph N/A   Overcast
8:35 PM 64.4 °F 56.8 °F 76% 29.77 in 10.0 mi West 10.4 mph - N/A   Scattered Clouds
8:55 PM 64.0 °F 56.7 °F 77% 29.77 in 10.0 mi West 9.2 mph - N/A   Scattered Clouds
9:15 PM 64.4 °F 57.2 °F 77% 29.78 in 10.0 mi West 6.9 mph - N/A   Overcast
9:35 PM 64.2 °F 57.2 °F 78% 29.79 in 10.0 mi WSW 6.9 mph - N/A   Overcast
9:55 PM 63.5 °F 56.8 °F 79% 29.80 in 10.0 mi WSW 6.9 mph - N/A   Mostly Cloudy
10:15 PM 62.8 °F 56.7 °F 80% 29.81 in 10.0 mi SW 8.1 mph - N/A   Scattered Clouds
10:35 PM 62.6 °F 56.3 °F 80% 29.81 in 10.0 mi WSW 10.4 mph - N/A   Mostly Cloudy
10:55 PM 62.1 °F 56.5 °F 82% 29.81 in 10.0 mi WSW 12.7 mph - N/A   Mostly Cloudy
11:15 PM 61.9 °F 56.7 °F 83% 29.82 in 10.0 mi WSW 11.5 mph 17.3 mph N/A   Mostly Cloudy
11:35 PM 61.7 °F 56.5 °F 83% 29.82 in 10.0 mi WSW 10.4 mph - N/A   Mostly Cloudy
11:55 PM 61.2 °F 56.5 °F 85% 29.82 in 10.0 mi WSW 9.2 mph - N/A   Mostly Cloudy